Home > Weather > Coffs Harbour > Past weeks

Flag for Australia Past Weather in Coffs Harbour, New South Wales, Australia — Yesterday and Last 2 Weeks

Now
41 °F

Quite cool.


Feels Like: 37 °F
Forecast: 44 / 67 °F
Wind: 6 mph from Northwest

Location: Tamworth Airport AWS

Current Time: Jul 25, 2016 at 10:06:16 PM

Latest Report: Jul 25, 2016 at 9:00 PM


Visibility: N/A

Pressure: 30.11 "Hg

Humidity: 72%

Dew Point: 32 °F

Location of Coffs HarbourLocation

Past Weather in Coffs Harbour — Graph

°F

Coffs Harbour Temperature Yesterday

Maximum temperature yesterday: 50 °F (at 3:00 PM)
Minimum temperature yesterday: 38 °F (at 7:00 AM)
Average temperature yesterday: 43 °F

High & Low Weather Summary for the Past Weeks

 TemperatureHumidityPressure
High73 °F (Jul 19, 2:00 PM)92% (Jul 11, 4:00 AM)30.46 "Hg (Jul 11, 4:00 AM)
Low27 °F (Jul 15, 6:00 AM)33% (Jul 23, 11:00 AM)29.68 "Hg (Jul 23, 3:00 AM)
Average53 °F73%30.16 "Hg
* Reported Jul 10 9:00 PM — Jul 25 9:00 PM, Coffs Harbour, Weather by CustomWeather, © 2016

Note: Actual official high and low records may vary slightly from our data, if they occured in-between our weather recording intervals... More about our weather records

Advertising

Coffs Harbour Weather History for the Previous 24 Hours

Scroll right to see more
 ConditionsComfort  
Time TempWeatherWind HumidityBarometerVisibility
9:00 PM
Mon, Jul 25
41 °FQuite cool.6 mph72%30.11 "HgN/A
8:00 PM43 °FQuite cool.8 mph72%30.11 "HgN/A
7:00 PM44 °FQuite cool.8 mph69%30.10 "HgN/A
6:00 PM45 °FCool.8 mph68%30.07 "HgN/A
5:00 PM53 °FCool.10 mph49%30.06 "HgN/A
4:00 PM57 °FRefreshingly cool.13 mph43%30.05 "HgN/A
3:00 PM57 °FPassing clouds.16 mph42%30.05 "HgN/A
2:00 PM58 °FRefreshingly cool.15 mph41%30.04 "HgN/A
1:00 PM56 °FRefreshingly cool.16 mph41%30.06 "HgN/A
12:00 PM56 °FRefreshingly cool.13 mph46%30.08 "HgN/A
11:00 AM55 °FCool.9 mph49%30.10 "HgN/A
10:00 AM53 °FCool.9 mph56%30.12 "HgN/A
9:00 AM48 °FCool.8 mph73%30.11 "HgN/A
8:00 AM42 °FQuite cool.6 mph85%30.10 "HgN/A
7:00 AM41 °FQuite cool.6 mph82%30.07 "HgN/A
6:00 AM43 °FOvercast.6 mph79%30.05 "HgN/A
5:00 AM44 °FQuite cool.8 mph79%30.03 "HgN/A
4:00 AM41 °FQuite cool.7 mph83%30.01 "HgN/A
3:00 AM42 °FQuite cool.7 mph80%30.02 "HgN/A
2:00 AM45 °FCool.9 mph75%30.02 "HgN/A
1:00 AM46 °FCool.10 mph75%30.04 "HgN/A
12:00 AM45 °FOvercast.12 mph77%30.03 "HgN/A
11:00 PM
Sun, Jul 24
43 °FQuite cool.8 mph79%30.05 "HgN/A
10:00 PM43 °FQuite cool.6 mph83%30.05 "HgN/A
Weather by CustomWeather, © 2016

See weather overviewHow to use our weather pages